Location: Cannifist
(18.2333°N, 63.0167°W)
Time: 15:36:39
(UTC+00:00)

SL-4 R/B - Pass Details

Date: 27 February 2020
Orbit: 428 x 667 km, 51.6° (Epoch: 01 April)

Event Time Altitude Azimuth Distance (km) Brightness Sun altitude
Rises 22:40:33 0° 307° (NW) 2,942 6.5 -6.3°
Reaches altitude 10° 22:43:09 10° 296° (WNW) 2,002 5.9 -6.9°
Maximum altitude 22:47:08 29° 237° (WSW) 1,107 4.4 -7.8°
Drops below altitude 10° 22:50:54 10° 176° (S) 1,880 4.8 -8.7°
Sets 22:53:17 0° 164° (SSE) 2,731 5.5 -9.3°
